EFW39L EGKK-LCPH

Flight info

Callsign EFW39L
Flight time N/A
Altitude 35000
Route MIMFO Y312 DVR UL9 KONAN DCT KOK DCT LIRSU DCT VIBOM DCT NOMBO DCT RIDAR DCT RADIZ DCT LUMUS DCT KUSIB DCT BOSNA DCT MODRA DCT MEDUX UM867 KOGAT DCT DISOR/N0435F370 DCT FSK DCT RIKSO UN127 IMR UG80 BANRO DCT RDS UM601 EVENO DCT DASNI/N0422F330 DCT TOBAL
Aircraft A320/M-SDE3FGHIRWY/LB1

Departure

Time 2026-04-16 12:23
Airport London Gatwick Airport (EGKK)

Arrival

Time N/A
Airport Paphos International Airport (LCPH)
Time Latitude Longitude Altitude Speed Heading
2026-04-16 11:46 51.15532 -0.16601 0 ft 0 kts 348°
2026-04-16 12:14 51.15531 -0.16601 205 ft 2 kts 348°
2026-04-16 12:14 51.15514 -0.16595 214 ft 3 kts 335°
2026-04-16 12:14 51.15499 -0.16582 208 ft 3 kts 321°
2026-04-16 12:15 51.15485 -0.16564 217 ft 3 kts 321°
2026-04-16 12:15 51.15472 -0.16547 217 ft 2 kts 321°
2026-04-16 12:15 51.15462 -0.16534 217 ft 3 kts 333°
2026-04-16 12:15 51.15446 -0.16524 215 ft 2 kts 340°
2026-04-16 12:16 51.15431 -0.16516 214 ft 1 kts 349°
2026-04-16 12:18 51.15440 -0.16519 215 ft 2 kts 349°
2026-04-16 12:19 51.15458 -0.16528 217 ft 3 kts 332°
2026-04-16 12:19 51.15465 -0.16564 217 ft 4 kts 267°
2026-04-16 12:19 51.15456 -0.16618 210 ft 6 kts 257°
2026-04-16 12:19 51.15449 -0.16673 213 ft 4 kts 257°
2026-04-16 12:20 51.15438 -0.16718 209 ft 5 kts 229°
2026-04-16 12:20 51.15401 -0.16721 205 ft 6 kts 165°
2026-04-16 12:20 51.15373 -0.16708 210 ft 1 kts 164°
2026-04-16 12:20 51.15360 -0.16703 205 ft 3 kts 164°
2026-04-16 12:21 51.15337 -0.16692 215 ft 4 kts 161°
2026-04-16 12:21 51.15299 -0.16673 208 ft 8 kts 166°
2026-04-16 12:21 51.15227 -0.16649 205 ft 13 kts 168°
2026-04-16 12:21 51.15159 -0.16648 214 ft 1 kts 204°
2026-04-16 12:22 51.15127 -0.16763 214 ft 31 kts 255°
2026-04-16 12:22 51.15032 -0.17442 211 ft 92 kts 258°
2026-04-16 12:22 51.14861 -0.18704 206 ft 139 kts 258°
2026-04-16 12:22 51.14637 -0.20356 464 ft 155 kts 255°
2026-04-16 12:23 51.14420 -0.22031 1147 ft 154 kts 255°
2026-04-16 12:23 51.14195 -0.23738 1579 ft 165 kts 256°
2026-04-16 12:23 51.13941 -0.25599 1935 ft 179 kts 256°
2026-04-16 12:23 51.13715 -0.27650 2194 ft 200 kts 267°
2026-04-16 12:24 51.14039 -0.29777 2551 ft 219 kts 296°
2026-04-16 12:24 51.14876 -0.31322 3087 ft 229 kts 321°
2026-04-16 12:24 51.16393 -0.32223 3741 ft 243 kts 354°
2026-04-16 12:24 51.18050 -0.31590 4426 ft 253 kts 31°
2026-04-16 12:25 51.19196 -0.29542 5084 ft 261 kts 68°
2026-04-16 12:25 51.19662 -0.26732 5761 ft 265 kts 79°
2026-04-16 12:25 51.20006 -0.23833 6487 ft 268 kts 80°
2026-04-16 12:25 51.20335 -0.20895 7185 ft 270 kts 81°
2026-04-16 12:26 51.20683 -0.17887 7634 ft 286 kts 79°
2026-04-16 12:26 51.21074 -0.14705 8140 ft 297 kts 79°
2026-04-16 12:26 51.21491 -0.11461 8801 ft 301 kts 78°
2026-04-16 12:26 51.21923 -0.08167 9495 ft 305 kts 78°
2026-04-16 12:27 51.22365 -0.04821 10177 ft 310 kts 78°
2026-04-16 12:27 51.22819 -0.01383 10495 ft 328 kts 78°
2026-04-16 12:27 51.23303 0.02308 10621 ft 350 kts 78°
2026-04-16 12:28 51.23550 0.04144 11885 ft 252 kts 77°
2026-04-16 12:28 51.23841 0.06247 14865 ft 172 kts 77°
2026-04-16 12:29 51.24120 0.08420 13975 ft 252 kts 79°
2026-04-16 12:29 51.24502 0.11768 12982 ft 327 kts 79°
2026-04-16 12:29 51.24908 0.15145 14045 ft 326 kts 78°
2026-04-16 12:29 51.25274 0.18860 14287 ft 351 kts 86°
2026-04-16 12:30 51.25283 0.22881 14527 ft 373 kts 96°
2026-04-16 12:30 51.24978 0.27067 14724 ft 385 kts 98°
2026-04-16 12:30 51.24651 0.31339 15249 ft 390 kts 98°
2026-04-16 12:30 51.24344 0.35329 15701 ft 393 kts 98°
2026-04-16 12:31 51.24006 0.39688 16200 ft 397 kts 98°
2026-04-16 12:31 51.23667 0.44074 16699 ft 400 kts 98°
2026-04-16 12:31 51.23328 0.48502 17199 ft 404 kts 98°
2026-04-16 12:31 51.22987 0.52958 17694 ft 407 kts 98°
2026-04-16 12:32 51.22640 0.57471 18203 ft 410 kts 98°
2026-04-16 12:32 51.22293 0.61944 18680 ft 413 kts 98°
2026-04-16 12:32 51.21936 0.66511 19181 ft 417 kts 98°
2026-04-16 12:32 51.21574 0.71114 19680 ft 420 kts 98°
2026-04-16 12:33 51.21211 0.75706 20179 ft 423 kts 98°
2026-04-16 12:33 51.20838 0.80421 20679 ft 426 kts 98°
2026-04-16 12:33 51.20465 0.85117 21306 ft 429 kts 98°
2026-04-16 12:33 51.20083 0.89856 21742 ft 432 kts 98°
2026-04-16 12:34 51.19693 0.94634 22176 ft 435 kts 98°
2026-04-16 12:34 51.19301 0.99430 22599 ft 438 kts 98°
2026-04-16 12:34 51.18905 1.04255 23016 ft 441 kts 98°
2026-04-16 12:34 51.18504 1.09119 23428 ft 444 kts 98°
2026-04-16 12:35 51.18100 1.14015 23824 ft 447 kts 98°
2026-04-16 12:35 51.17693 1.18939 24149 ft 450 kts 98°
2026-04-16 12:35 51.17278 1.23899 24464 ft 453 kts 98°
2026-04-16 12:35 51.16858 1.28885 24771 ft 456 kts 98°
2026-04-16 12:36 51.16436 1.33898 25084 ft 458 kts 98°
2026-04-16 12:36 51.16039 1.38957 25369 ft 461 kts 97°
2026-04-16 12:36 51.15735 1.44071 25658 ft 464 kts 95°
2026-04-16 12:36 51.15503 1.49212 25957 ft 467 kts 94°
2026-04-16 12:37 51.15304 1.54395 26248 ft 470 kts 94°
2026-04-16 12:37 51.15102 1.59604 26534 ft 473 kts 94°
2026-04-16 12:37 51.14881 1.64842 26814 ft 475 kts 94°
2026-04-16 12:37 51.14639 1.70104 27098 ft 478 kts 94°
2026-04-16 12:38 51.14377 1.75386 27375 ft 480 kts 95°
2026-04-16 12:38 51.14100 1.80698 27652 ft 483 kts 95°
2026-04-16 12:38 51.13816 1.86034 27929 ft 485 kts 95°
2026-04-16 12:38 51.13528 1.91404 28206 ft 488 kts 95°
2026-04-16 12:39 51.13241 1.96797 28481 ft 490 kts 94°
2026-04-16 12:39 51.12955 2.02222 28776 ft 492 kts 94°
2026-04-16 12:39 51.12670 2.07641 29164 ft 491 kts 94°
2026-04-16 12:39 51.12386 2.13054 29546 ft 491 kts 94°
2026-04-16 12:40 51.12097 2.18472 29927 ft 491 kts 94°
2026-04-16 12:40 51.11803 2.23882 30290 ft 491 kts 94°
2026-04-16 12:40 51.11507 2.29298 30607 ft 491 kts 94°
2026-04-16 12:40 51.11206 2.34715 30908 ft 492 kts 94°
2026-04-16 12:41 51.10904 2.40142 31209 ft 493 kts 94°
2026-04-16 12:41 51.10601 2.45574 31508 ft 493 kts 94°
2026-04-16 12:41 51.10294 2.51020 31807 ft 494 kts 94°
2026-04-16 12:41 51.09982 2.56470 32101 ft 495 kts 94°
2026-04-16 12:42 51.09646 2.61923 32398 ft 496 kts 97°
2026-04-16 12:42 51.08958 2.67304 32682 ft 497 kts 107°
2026-04-16 12:42 51.07861 2.72525 32953 ft 498 kts 110°
2026-04-16 12:42 51.06711 2.77709 33239 ft 499 kts 110°
2026-04-16 12:43 51.05563 2.82921 33515 ft 500 kts 110°
2026-04-16 12:43 51.04419 2.88146 33776 ft 501 kts 110°
2026-04-16 12:43 51.03276 2.93371 34028 ft 502 kts 110°
2026-04-16 12:43 51.02125 2.98611 34272 ft 502 kts 110°
2026-04-16 12:44 51.00970 3.03842 34501 ft 503 kts 110°
2026-04-16 12:44 50.99805 3.09077 34764 ft 501 kts 110°
2026-04-16 12:44 50.98641 3.14279 35044 ft 500 kts 110°
2026-04-16 12:44 50.97851 3.17796 35174 ft 500 kts 110°
2026-04-16 12:45 50.95125 3.29883 35224 ft 507 kts 110°
2026-04-16 12:45 50.93126 3.38714 35227 ft 509 kts 110°
2026-04-16 12:46 50.90748 3.49212 35225 ft 509 kts 110°
2026-04-16 12:46 50.88354 3.59755 35225 ft 508 kts 110°
2026-04-16 12:47 50.85932 3.70344 35228 ft 508 kts 110°
2026-04-16 12:47 50.83531 3.80815 35233 ft 508 kts 110°
2026-04-16 12:48 50.81093 3.91354 35242 ft 508 kts 110°
2026-04-16 12:48 50.78655 4.01840 35249 ft 508 kts 110°
2026-04-16 12:49 50.76594 4.10646 35250 ft 508 kts 110°
2026-04-16 12:49 50.74356 4.20170 35258 ft 508 kts 110°
2026-04-16 12:50 50.71898 4.30613 35259 ft 507 kts 110°
2026-04-16 12:50 50.69435 4.41028 35257 ft 507 kts 110°
2026-04-16 12:51 50.66964 4.51439 35261 ft 506 kts 110°
2026-04-16 12:51 50.64489 4.61821 35262 ft 506 kts 110°
2026-04-16 12:52 50.62002 4.72184 35261 ft 505 kts 110°
2026-04-16 12:52 50.59521 4.82468 35260 ft 505 kts 110°
2026-04-16 12:53 50.57021 4.92779 35257 ft 504 kts 110°
2026-04-16 12:53 50.54516 5.03075 35261 ft 504 kts 110°
2026-04-16 12:54 50.52004 5.13360 35261 ft 503 kts 110°
2026-04-16 12:54 50.49485 5.23618 35262 ft 503 kts 111°
2026-04-16 12:55 50.46952 5.33853 35264 ft 502 kts 111°
2026-04-16 12:55 50.44417 5.44068 35262 ft 502 kts 110°
2026-04-16 12:56 50.41880 5.54246 35261 ft 501 kts 111°
2026-04-16 12:56 50.39334 5.64422 35262 ft 501 kts 110°
2026-04-16 12:57 50.36793 5.74571 35261 ft 500 kts 111°
2026-04-16 12:57 50.34230 5.84693 35260 ft 499 kts 111°
2026-04-16 12:58 50.31667 5.94783 35259 ft 499 kts 111°
2026-04-16 12:58 50.29108 6.04856 35256 ft 498 kts 111°
2026-04-16 12:59 50.26542 6.14890 35256 ft 497 kts 111°
2026-04-16 13:00 50.22669 6.29897 35243 ft 496 kts 111°
2026-04-16 13:00 50.20084 6.39864 35240 ft 495 kts 111°
2026-04-16 13:01 50.17507 6.49829 35227 ft 494 kts 111°
2026-04-16 13:01 50.14996 6.59799 35235 ft 494 kts 110°
2026-04-16 13:02 50.12498 6.69762 35241 ft 493 kts 111°
2026-04-16 13:02 50.09982 6.79700 35237 ft 492 kts 111°
2026-04-16 13:03 50.07451 6.89596 35235 ft 491 kts 111°
2026-04-16 13:03 50.04912 6.99471 35237 ft 491 kts 111°
2026-04-16 13:04 50.02366 7.09320 35257 ft 490 kts 111°
2026-04-16 13:04 49.99823 7.19144 35265 ft 490 kts 111°
2026-04-16 13:05 49.97272 7.28953 35267 ft 489 kts 111°
2026-04-16 13:05 49.94714 7.38736 35267 ft 489 kts 112°
2026-04-16 13:06 49.92155 7.48496 35261 ft 488 kts 112°
2026-04-16 13:06 49.89599 7.58240 35256 ft 488 kts 112°
2026-04-16 13:07 49.87025 7.67980 35249 ft 487 kts 112°
2026-04-16 13:07 49.84463 7.77620 35247 ft 487 kts 112°
2026-04-16 13:08 49.81873 7.87306 35244 ft 486 kts 112°
2026-04-16 13:08 49.79282 7.96972 35240 ft 486 kts 112°
2026-04-16 13:09 49.76681 8.06636 35236 ft 486 kts 112°
2026-04-16 13:09 49.74221 8.15736 35237 ft 485 kts 112°
2026-04-16 13:10 49.71618 8.25352 35238 ft 485 kts 112°
2026-04-16 13:10 49.69005 8.34962 35245 ft 485 kts 112°
2026-04-16 13:11 49.66367 8.44603 35250 ft 484 kts 113°
2026-04-16 13:11 49.63744 8.54160 35253 ft 484 kts 113°
2026-04-16 13:12 49.61109 8.63712 35258 ft 483 kts 113°
2026-04-16 13:12 49.58475 8.73239 35254 ft 483 kts 113°
2026-04-16 13:13 49.55830 8.82746 35248 ft 482 kts 113°
2026-04-16 13:13 49.53177 8.92240 35246 ft 482 kts 113°
2026-04-16 13:14 49.50545 9.01629 35244 ft 482 kts 113°
2026-04-16 13:14 49.47864 9.11173 35240 ft 482 kts 114°
2026-04-16 13:15 49.44656 9.20179 35239 ft 480 kts 124°
2026-04-16 13:15 49.41002 9.28757 35236 ft 480 kts 124°
2026-04-16 13:16 49.37336 9.37332 35239 ft 480 kts 124°
2026-04-16 13:16 49.33673 9.45892 35247 ft 480 kts 124°
2026-04-16 13:17 49.30005 9.54429 35247 ft 480 kts 124°
2026-04-16 13:17 49.26325 9.62961 35254 ft 480 kts 124°
2026-04-16 13:18 49.22644 9.71477 35256 ft 480 kts 124°
2026-04-16 13:18 49.18961 9.79985 35257 ft 479 kts 124°
2026-04-16 13:19 49.15261 9.88465 35255 ft 479 kts 124°
2026-04-16 13:19 49.11557 9.96944 35260 ft 479 kts 124°
2026-04-16 13:20 49.07854 10.05409 35263 ft 479 kts 124°
2026-04-16 13:20 49.03557 10.13103 35266 ft 476 kts 137°
2026-04-16 13:21 48.99656 10.19009 35271 ft 476 kts 137°
2026-04-16 13:21 48.94964 10.26129 35281 ft 476 kts 136°
2026-04-16 13:22 48.90272 10.33234 35288 ft 476 kts 136°
2026-04-16 13:22 48.85612 10.40257 35288 ft 476 kts 136°
2026-04-16 13:23 48.80916 10.47324 35292 ft 475 kts 136°
2026-04-16 13:23 48.76216 10.54373 35294 ft 475 kts 136°
2026-04-16 13:24 48.71520 10.61401 35290 ft 474 kts 136°
2026-04-16 13:24 48.66824 10.68418 35290 ft 474 kts 136°
2026-04-16 13:25 48.62131 10.75395 35289 ft 473 kts 136°
2026-04-16 13:25 48.57587 10.82598 35286 ft 473 kts 129°
2026-04-16 13:26 48.53450 10.90316 35290 ft 473 kts 129°
2026-04-16 13:26 48.49307 10.98005 35293 ft 472 kts 129°
2026-04-16 13:27 48.45155 11.05684 35294 ft 472 kts 129°
2026-04-16 13:27 48.41008 11.13335 35290 ft 471 kts 129°
2026-04-16 13:28 48.36859 11.20954 35283 ft 471 kts 130°
2026-04-16 13:28 48.32706 11.28563 35286 ft 470 kts 130°
2026-04-16 13:29 48.29574 11.34283 35282 ft 469 kts 130°
2026-04-16 13:29 48.25495 11.41715 35296 ft 469 kts 130°
2026-04-16 13:30 48.21348 11.49262 35291 ft 468 kts 130°
2026-04-16 13:30 48.17205 11.56776 35282 ft 467 kts 130°
2026-04-16 13:31 48.13058 11.64271 35276 ft 466 kts 130°
2026-04-16 13:31 48.08917 11.71738 35272 ft 466 kts 130°
2026-04-16 13:32 48.04754 11.79243 35269 ft 465 kts 130°
2026-04-16 13:32 48.00621 11.86667 35270 ft 465 kts 131°
2026-04-16 13:33 47.96473 11.94069 35268 ft 464 kts 131°
2026-04-16 13:33 47.92327 12.01456 35270 ft 464 kts 131°
2026-04-16 13:34 47.88193 12.08815 35269 ft 463 kts 131°
2026-04-16 13:34 47.84059 12.16170 35270 ft 463 kts 131°
2026-04-16 13:35 47.79919 12.23499 35267 ft 462 kts 132°
2026-04-16 13:35 47.75772 12.30807 35263 ft 462 kts 132°
2026-04-16 13:36 47.71627 12.38091 35256 ft 461 kts 132°
2026-04-16 13:36 47.67484 12.45360 35255 ft 461 kts 132°
2026-04-16 13:37 47.63335 12.52632 35255 ft 461 kts 133°
2026-04-16 13:37 47.59103 12.59750 35259 ft 460 kts 135°
2026-04-16 13:38 47.54737 12.66654 35248 ft 459 kts 136°
2026-04-16 13:38 47.50357 12.73519 35246 ft 459 kts 136°
2026-04-16 13:39 47.46011 12.80428 35244 ft 459 kts 135°
2026-04-16 13:39 47.41675 12.87363 35239 ft 459 kts 135°
2026-04-16 13:40 47.37337 12.94271 35239 ft 459 kts 135°
2026-04-16 13:40 47.32990 13.01151 35230 ft 458 kts 136°
2026-04-16 13:41 47.28636 13.08014 35227 ft 459 kts 136°
2026-04-16 13:41 47.24282 13.14878 35227 ft 458 kts 136°
2026-04-16 13:42 47.19921 13.21733 35220 ft 458 kts 136°
2026-04-16 13:42 47.15566 13.28557 35215 ft 457 kts 136°
2026-04-16 13:43 47.11218 13.35358 35212 ft 457 kts 136°
2026-04-16 13:43 47.06862 13.42151 35204 ft 456 kts 136°
2026-04-16 13:44 47.02504 13.48924 35198 ft 456 kts 136°
2026-04-16 13:44 46.98149 13.55687 35188 ft 456 kts 136°
2026-04-16 13:45 46.93787 13.62435 35184 ft 456 kts 136°
2026-04-16 13:45 46.89419 13.69165 35183 ft 456 kts 136°
2026-04-16 13:46 46.85057 13.75886 35179 ft 456 kts 136°
2026-04-16 13:46 46.80681 13.82590 35179 ft 456 kts 136°
2026-04-16 13:47 46.76311 13.89279 35179 ft 456 kts 136°
2026-04-16 13:47 46.72182 13.95583 35183 ft 455 kts 136°
2026-04-16 13:48 46.67888 14.02144 35188 ft 455 kts 136°
2026-04-16 13:48 46.63509 14.08811 35195 ft 455 kts 136°
2026-04-16 13:49 46.59124 14.15453 35194 ft 455 kts 136°
2026-04-16 13:49 46.54868 14.22265 35195 ft 456 kts 133°
2026-04-16 13:50 46.50757 14.29290 35200 ft 456 kts 132°
2026-04-16 13:50 46.46654 14.36288 35200 ft 455 kts 133°
2026-04-16 13:51 46.42497 14.43212 35194 ft 455 kts 134°
2026-04-16 13:51 46.38364 14.49992 35201 ft 454 kts 133°
2026-04-16 13:52 46.34196 14.56856 35201 ft 454 kts 133°
2026-04-16 13:52 46.30038 14.63728 35196 ft 453 kts 133°
2026-04-16 13:53 46.25877 14.70582 35207 ft 453 kts 133°
2026-04-16 13:53 46.21711 14.77406 35199 ft 453 kts 133°
2026-04-16 13:54 46.17542 14.84216 35198 ft 452 kts 133°
2026-04-16 13:54 46.13382 14.91012 35201 ft 452 kts 133°
2026-04-16 13:55 46.09223 14.97805 35201 ft 452 kts 133°
2026-04-16 13:55 46.05055 15.04576 35198 ft 451 kts 133°
2026-04-16 13:56 46.00881 15.11323 35198 ft 451 kts 133°
2026-04-16 13:56 45.96711 15.18050 35195 ft 450 kts 133°
2026-04-16 13:57 45.92545 15.24770 35199 ft 450 kts 133°
2026-04-16 13:57 45.89084 15.30342 35186 ft 450 kts 133°
2026-04-16 13:58 45.82831 15.40373 35206 ft 449 kts 133°
2026-04-16 13:58 45.78653 15.47041 35204 ft 449 kts 132°
2026-04-16 13:59 45.74470 15.53706 35202 ft 449 kts 132°
2026-04-16 13:59 45.70319 15.60320 35185 ft 449 kts 132°
2026-04-16 14:00 45.66140 15.66967 35185 ft 449 kts 132°
2026-04-16 14:00 45.61953 15.73597 35193 ft 449 kts 132°
2026-04-16 14:01 45.57766 15.80201 35185 ft 449 kts 132°
2026-04-16 14:01 45.53577 15.86797 35188 ft 448 kts 132°
2026-04-16 14:02 45.49383 15.93386 35190 ft 448 kts 132°
2026-04-16 14:02 45.45193 15.99966 35179 ft 448 kts 131°
2026-04-16 14:03 45.41002 16.06527 35178 ft 447 kts 131°
2026-04-16 14:03 45.36810 16.13070 35176 ft 447 kts 131°
2026-04-16 14:04 45.32621 16.19594 35176 ft 446 kts 131°
2026-04-16 14:04 45.28460 16.26050 35183 ft 446 kts 131°
2026-04-16 14:05 45.24273 16.32536 35184 ft 445 kts 131°
2026-04-16 14:05 45.20097 16.39007 35184 ft 444 kts 131°
2026-04-16 14:06 45.16023 16.45285 35183 ft 444 kts 131°
2026-04-16 14:06 45.11917 16.51794 35185 ft 443 kts 129°
2026-04-16 14:07 45.08001 16.58509 35187 ft 442 kts 128°
2026-04-16 14:07 45.04108 16.65240 35183 ft 441 kts 128°
2026-04-16 14:08 45.00176 16.71903 35175 ft 441 kts 129°
2026-04-16 14:08 44.96228 16.78511 35188 ft 440 kts 129°
2026-04-16 14:09 44.92273 16.85102 35194 ft 439 kts 129°
2026-04-16 14:09 44.88309 16.91719 35185 ft 438 kts 128°
2026-04-16 14:10 44.84399 16.98239 35189 ft 438 kts 128°
2026-04-16 14:10 44.80467 17.04786 35194 ft 437 kts 128°
2026-04-16 14:11 44.76536 17.11306 35184 ft 436 kts 128°
2026-04-16 14:11 44.72582 17.17850 35183 ft 435 kts 128°
2026-04-16 14:12 44.68656 17.24317 35195 ft 435 kts 128°
2026-04-16 14:12 44.64733 17.30783 35191 ft 434 kts 128°
2026-04-16 14:13 44.60840 17.37188 35193 ft 434 kts 128°
2026-04-16 14:13 44.56917 17.43615 35182 ft 433 kts 128°
2026-04-16 14:14 44.53003 17.50025 35193 ft 432 kts 128°
2026-04-16 14:14 44.49090 17.56426 35182 ft 432 kts 128°
2026-04-16 14:15 44.45151 17.62840 35188 ft 431 kts 128°
2026-04-16 14:15 44.41234 17.69192 35178 ft 431 kts 129°
2026-04-16 14:16 44.37317 17.75535 35176 ft 431 kts 129°
2026-04-16 14:16 44.33192 17.81627 35171 ft 432 kts 133°